Date String (YYYY-MM-DD hh:mm:ss) UTC,Instrument flags,absolute air pressure of the measurement (hPa),sample flow rate (lpm),inlet stack bypass flow (lpm),air temperature of the measurement (°C),ambient temperature measured by the external sensor (°C),aerosol sample conditioner tube jacket temperature (°C),OPC LED temperature (°C),internal box temperature (°C),relative humidity of the measurement (%),span deviation,mass concentration of particles derived from Lorenz-Mie calculation of OPC scattering (μg/m³),mass concentration of particles derived from Lorenz-Mie calculation of OPC scattering (μg/m³),mass concentration of particles derived from Lorenz-Mie calculation of OPC scattering (μg/m³)
DateTimeUTC,F1_M11,P_M11,Q1_M11,Q2_M11,T1_M11,T2_M11,T3_M11,T4_M11,T5_M11,U1_M11,ZSPAN_M11,X2_M11,X0_M11,X1_M11
2024-03-11 17:00:00,SystemResetWarning,0826.0,5.01,000.00,019.6,018.9,000.0,028.0,021.3,09.4,0000.0,0003.71,0011.87,0001.56
2024-03-11 17:01:00,SystemResetWarning,0826.0,5.00,000.00,019.6,018.9,000.0,028.0,021.3,09.9,0000.0,0003.71,0012.09,0001.54
2024-03-11 17:02:00,SystemResetWarning,0826.0,4.99,000.00,019.6,018.9,000.0,028.0,021.3,10.0,0000.0,0003.64,0012.13,0001.53
2024-03-11 17:03:00,SystemResetWarning,0826.0,4.99,000.00,019.6,018.9,000.0,028.0,021.3,09.9,0000.0,0003.61,0011.70,0001.51
2024-03-11 17:04:00,SystemResetWarning,0826.0,5.00,000.00,019.6,018.9,000.0,028.0,021.3,09.8,0000.0,0003.57,0012.71,0001.49
2024-03-11 17:05:00,SystemResetWarning,0826.0,5.01,000.00,019.6,019.0,000.0,028.0,021.3,10.0,0000.0,0003.51,0012.27,0001.47
2024-03-11 17:06:00,SystemResetWarning,0826.0,5.00,000.00,019.6,019.0,000.0,028.0,021.3,09.8,0000.0,0003.52,0011.63,0001.47
2024-03-11 17:07:00,SystemResetWarning,0826.0,4.99,000.00,019.6,019.0,000.0,028.0,021.3,10.1,0000.0,0003.51,0011.62,0001.48
2024-03-11 17:08:00,SystemResetWarning,0826.0,4.99,000.00,019.6,019.0,000.0,028.0,021.3,09.9,0000.0,0003.45,0011.42,0001.48
2024-03-11 17:09:00,SystemResetWarning,0826.0,5.01,000.00,019.6,018.9,000.0,028.0,021.3,10.0,0000.0,0003.45,0011.93,0001.48
2024-03-11 17:10:00,SystemResetWarning,0826.0,5.01,000.00,019.6,019.0,000.0,028.0,021.3,10.2,0000.0,0003.48,0011.90,0001.49
2024-03-11 17:11:00,SystemResetWarning,0826.1,5.00,000.00,019.6,019.0,000.0,028.0,021.3,10.3,0000.0,0003.44,0011.54,0001.50
2024-03-11 17:12:00,SystemResetWarning,0826.1,4.99,000.00,019.6,019.0,000.0,028.0,021.3,10.2,0000.0,0003.41,0010.90,0001.50
2024-03-11 17:13:00,SystemResetWarning,0826.0,4.99,000.00,019.6,018.9,000.0,028.0,021.3,10.0,0000.0,0003.40,0010.56,0001.50
2024-03-11 17:14:00,SystemResetWarning,0826.0,5.00,000.00,019.6,019.0,000.0,028.0,021.3,10.0,0000.0,0003.41,0010.69,0001.51
2024-03-11 17:15:00,SystemResetWarning,0826.0,5.00,000.00,019.6,018.9,000.0,028.0,021.3,10.1,0000.0,0003.43,0009.73,0001.52
2024-03-11 17:16:00,SystemResetWarning,0825.9,5.00,000.00,019.6,018.9,000.0,028.0,021.3,10.2,0000.0,0003.46,0009.75,0001.54
2024-03-11 17:17:00,SystemResetWarning,0825.9,5.00,000.00,019.6,019.0,000.0,028.0,021.3,10.3,0000.0,0003.45,0009.67,0001.51
2024-03-11 17:18:00,SystemResetWarning,0825.9,5.00,000.00,019.6,018.9,000.0,028.0,021.3,10.1,0000.0,0003.44,0009.62,0001.50
2024-03-11 17:19:00,SystemResetWarning,0825.9,5.00,000.00,019.6,018.9,000.0,028.0,021.3,10.1,0000.0,0003.44,0009.81,0001.50
2024-03-11 17:20:00,SystemResetWarning,0825.9,5.00,000.00,019.6,018.9,000.0,028.0,021.3,10.3,0000.0,0003.41,0009.26,0001.49
2024-03-11 17:21:00,SystemResetWarning,0825.9,5.00,000.00,019.6,018.9,000.0,028.0,021.3,10.7,0000.0,0003.42,0009.67,0001.49
2024-03-11 17:22:00,SystemResetWarning,0825.9,5.00,000.00,019.6,019.0,000.0,028.0,021.3,10.3,0000.0,0003.43,0009.66,0001.48
2024-03-11 17:23:00,SystemResetWarning,0825.9,5.00,000.00,019.6,019.0,000.0,028.0,021.3,10.1,0000.0,0003.42,0010.16,0001.47
2024-03-11 17:24:00,SystemResetWarning,0825.9,5.00,000.00,019.6,019.0,000.0,028.0,021.3,10.2,0000.0,0003.44,0010.20,0001.46
2024-03-11 17:25:00,SystemResetWarning,0825.9,5.00,000.00,019.6,019.0,000.0,028.0,021.3,10.5,0000.0,0003.46,0010.54,0001.46
2024-03-11 17:26:00,SystemResetWarning,0825.9,5.00,000.00,019.6,019.0,000.0,028.0,021.3,10.4,0000.0,0003.45,0010.63,0001.44
2024-03-11 17:27:00,SystemResetWarning,0825.9,5.00,000.00,019.6,019.0,000.0,028.0,021.3,10.2,0000.0,0003.42,0010.63,0001.42
2024-03-11 17:28:00,SystemResetWarning,0825.9,5.00,000.00,019.6,018.9,000.0,028.0,021.3,10.4,0000.0,0003.41,0011.12,0001.44
2024-03-11 17:29:00,SystemResetWarning,0825.9,5.01,000.00,019.6,019.0,000.0,028.0,021.3,10.4,0000.0,0003.39,0011.69,0001.43
2024-03-11 17:30:00,SystemResetWarning,0825.9,4.99,000.00,019.6,019.0,000.0,028.0,021.3,10.3,0000.0,0003.40,0012.04,0001.43
2024-03-11 17:31:00,SystemResetWarning,0825.9,4.99,000.00,019.6,019.0,000.0,028.0,021.3,10.1,0000.0,0003.44,0012.47,0001.43
2024-03-11 17:32:00,SystemResetWarning,0825.9,4.99,000.00,019.6,019.0,000.0,028.0,021.4,10.2,0000.0,0003.43,0012.08,0001.43
2024-03-11 17:33:00,SystemResetWarning,0825.9,5.00,000.00,019.6,019.0,000.0,028.0,021.4,10.7,0000.0,0003.47,0012.27,0001.43
2024-03-11 17:34:00,SystemResetWarning,0825.9,5.01,000.00,019.7,019.0,000.0,028.0,021.4,10.4,0000.0,0003.48,0011.81,0001.43
2024-03-11 17:35:00,SystemResetWarning,0825.9,5.00,000.00,019.6,019.0,000.0,028.0,021.4,10.7,0000.0,0003.45,0011.43,0001.43
2024-03-11 17:36:00,SystemResetWarning,0825.9,4.99,000.00,019.6,019.0,000.0,028.0,021.4,10.3,0000.0,0003.41,0010.97,0001.43
2024-03-11 17:37:00,SystemResetWarning,0825.8,5.00,000.00,019.7,019.0,000.0,028.0,021.4,10.2,0000.0,0003.40,0010.75,0001.43
2024-03-11 17:38:00,SystemResetWarning,0825.8,5.00,000.00,019.7,019.0,000.0,028.0,021.4,10.4,0000.0,0003.42,0010.81,0001.44
2024-03-11 17:39:00,SystemResetWarning,0825.8,5.00,000.00,019.7,019.1,000.0,028.1,021.4,10.5,0000.0,0003.42,0010.44,0001.42
2024-03-11 17:40:00,SystemResetWarning,0825.7,4.99,000.00,019.7,019.1,000.0,028.1,021.4,10.8,0000.0,0003.40,0009.73,0001.42
2024-03-11 17:41:00,SystemResetWarning,0825.8,5.01,000.00,019.7,019.1,000.0,028.1,021.4,10.6,0000.0,0003.41,0008.99,0001.43
2024-03-11 17:42:00,SystemResetWarning,0825.8,5.00,000.00,019.7,019.1,000.0,028.1,021.4,10.6,0000.0,0003.39,0009.25,0001.43
2024-03-11 17:43:00,SystemResetWarning,0825.8,4.99,000.00,019.7,019.1,000.0,028.1,021.4,10.7,0000.0,0003.39,0009.65,0001.42
2024-03-11 17:44:00,SystemResetWarning,0825.8,5.00,000.00,019.7,019.1,000.0,028.1,021.4,10.5,0000.0,0003.32,0009.57,0001.41
2024-03-11 17:45:00,SystemResetWarning,0825.7,5.00,000.00,019.7,019.1,000.0,028.1,021.4,10.5,0000.0,0003.26,0009.46,0001.40
2024-03-11 17:46:00,SystemResetWarning,0825.7,5.00,000.00,019.7,019.1,000.0,028.1,021.4,10.8,0000.0,0003.27,0009.49,0001.41
2024-03-11 17:47:00,SystemResetWarning,0825.7,5.00,000.00,019.7,019.1,000.0,028.1,021.4,10.7,0000.0,0003.29,0009.32,0001.41
2024-03-11 17:48:00,SystemResetWarning,0825.6,5.00,000.00,019.7,019.1,000.0,028.1,021.4,10.7,0000.0,0003.32,0010.48,0001.42
2024-03-11 17:49:00,SystemResetWarning,0825.7,5.00,000.00,019.7,019.1,000.0,028.1,021.4,10.8,0000.0,0003.35,0010.81,0001.42
2024-03-11 17:50:00,SystemResetWarning,0825.7,5.00,000.00,019.7,019.1,000.0,028.1,021.5,10.3,0000.0,0003.33,0010.80,0001.42
2024-03-11 17:51:00,SystemResetWarning,0825.6,4.99,000.00,019.7,019.1,000.0,028.1,021.5,10.3,0000.0,0003.34,0010.91,0001.42
2024-03-11 17:52:00,SystemResetWarning,0825.7,5.00,000.00,019.7,019.2,000.0,028.1,021.5,10.2,0000.0,0003.31,0011.26,0001.41
2024-03-11 17:53:00,SystemResetWarning,0825.7,5.00,000.00,019.8,019.2,000.0,028.1,021.5,10.2,0000.0,0003.29,0010.59,0001.41
2024-03-11 17:54:00,SystemResetWarning,0825.7,5.01,000.00,019.8,019.2,000.0,028.1,021.5,10.3,0000.0,0003.27,0010.84,0001.41
2024-03-11 17:55:00,SystemResetWarning,0825.6,5.00,000.00,019.8,019.2,000.0,028.1,021.5,10.5,0000.0,0003.26,0010.72,0001.42
2024-03-11 17:56:00,SystemResetWarning,0825.6,5.00,000.00,019.8,019.2,000.0,028.1,021.5,10.6,0000.0,0003.31,0011.49,0001.42
2024-03-11 17:57:00,SystemResetWarning,0825.6,5.01,000.00,019.8,019.2,000.0,028.1,021.5,10.7,0000.0,0003.33,0011.46,0001.42
2024-03-11 17:58:00,SystemResetWarning,0825.6,5.00,000.00,019.8,019.2,000.0,028.1,021.6,10.7,0000.0,0003.31,0011.94,0001.43
2024-03-11 17:59:00,SystemResetWarning,0825.5,4.99,000.00,019.8,019.2,000.0,028.1,021.6,11.0,0000.0,0003.31,0010.96,0001.43
